Time,TemperatureF,DewpointF,PressureIn,WindDirection,WindDirectionDegrees,WindSpeedMPH,WindSpeedGustMPH,Humidity,HourlyPrecipIn,Conditions,Clouds,dailyrainin,SoftwareType,DateUTC
2013-02-21 00:03:00,49.0,-99.9,30.08,NW,321,-999.0,1.0,-999,-99.99,,,-99.99,,2013-02-21 05:03:00,
2013-02-21 00:12:00,49.0,-99.9,30.08,NW,321,-999.0,1.0,-999,-99.99,,,-99.99,,2013-02-21 05:12:00,
2013-02-21 00:22:00,49.0,-99.9,30.08,NW,321,-999.0,1.0,-999,-99.99,,,-99.99,,2013-02-21 05:22:00,
2013-02-21 01:42:00,49.0,-99.9,30.10,WSW,243,4.0,6.0,-999,-99.99,,,-99.99,,2013-02-21 06:42:00,
2013-02-21 01:52:00,48.0,-99.9,30.10,WSW,243,3.0,6.0,-999,-99.99,,,-99.99,,2013-02-21 06:52:00,
2013-02-21 02:01:00,48.0,-99.9,30.11,West,260,3.0,5.0,-999,-99.99,,,-99.99,,2013-02-21 07:01:00,
2013-02-21 02:11:00,48.0,-99.9,30.11,WSW,240,4.0,6.0,-999,-99.99,,,-99.99,,2013-02-21 07:11:00,
2013-02-21 02:22:00,48.0,-99.9,30.11,SW,230,4.0,6.0,-999,-99.99,,,-99.99,,2013-02-21 07:22:00,
2013-02-21 02:32:00,48.0,-99.9,30.10,WSW,241,4.0,6.0,-999,-99.99,,,-99.99,,2013-02-21 07:32:00,
2013-02-21 02:42:00,48.0,-99.9,30.10,WSW,245,5.0,6.0,-999,-99.99,,,-99.99,,2013-02-21 07:42:00,
2013-02-21 02:52:00,48.0,-99.9,30.10,WSW,254,5.0,6.0,-999,-99.99,,,-99.99,,2013-02-21 07:52:00,
2013-02-21 03:02:00,48.0,-99.9,30.10,West,261,4.0,6.0,-999,-99.99,,,-99.99,,2013-02-21 08:02:00,
2013-02-21 03:11:00,48.0,-99.9,30.10,West,259,5.0,6.0,-999,-99.99,,,-99.99,,2013-02-21 08:11:00,
2013-02-21 03:21:00,49.0,-99.9,30.09,WSW,247,4.0,6.0,-999,-99.99,,,-99.99,,2013-02-21 08:21:00,
2013-02-21 03:32:00,49.0,-99.9,30.09,WSW,248,5.0,7.0,-999,-99.99,,,-99.99,,2013-02-21 08:32:00,
2013-02-21 03:42:00,48.0,-99.9,30.09,WSW,258,5.0,6.0,-999,-99.99,,,-99.99,,2013-02-21 08:42:00,
2013-02-21 03:52:00,48.0,-99.9,30.09,WSW,255,5.0,6.0,-999,-99.99,,,-99.99,,2013-02-21 08:52:00,
2013-02-21 04:02:00,48.0,-99.9,30.09,West,263,3.0,5.0,-999,-99.99,,,-99.99,,2013-02-21 09:02:00,
2013-02-21 04:11:00,48.0,-99.9,30.09,West,278,2.0,4.0,-999,-99.99,,,-99.99,,2013-02-21 09:11:00,
2013-02-21 04:22:00,48.0,-99.9,30.09,WSW,238,1.0,3.0,-999,-99.99,,,-99.99,,2013-02-21 09:22:00,
2013-02-21 04:32:00,47.0,-99.9,30.08,West,281,1.0,3.0,-999,-99.99,,,-99.99,,2013-02-21 09:32:00,
2013-02-21 04:42:00,48.0,-99.9,30.08,West,259,2.0,4.0,-999,-99.99,,,-99.99,,2013-02-21 09:42:00,
2013-02-21 04:52:00,48.0,-99.9,30.09,West,259,4.0,4.0,-999,-99.99,,,-99.99,,2013-02-21 09:52:00,
2013-02-21 05:01:00,48.0,-99.9,30.09,West,259,4.0,4.0,-999,-99.99,,,-99.99,,2013-02-21 10:01:00,
2013-02-21 05:11:00,48.0,-99.9,30.09,West,259,4.0,4.0,-999,-99.99,,,-99.99,,2013-02-21 10:11:00,
2013-02-21 05:21:00,48.0,-99.9,30.09,West,259,4.0,4.0,-999,-99.99,,,-99.99,,2013-02-21 10:21:00,
2013-02-21 06:21:00,47.0,-99.9,30.10,WNW,285,2.0,6.0,-999,-99.99,,,-99.99,,2013-02-21 11:21:00,
2013-02-21 06:31:00,47.0,-99.9,30.10,North,359,1.0,2.0,-999,-99.99,,,-99.99,,2013-02-21 11:31:00,
2013-02-21 06:42:00,44.0,-99.9,30.11,NNW,340,4.0,4.0,-999,-99.99,,,-99.99,,2013-02-21 11:42:00,
2013-02-21 06:52:00,44.0,-99.9,30.11,NNW,333,4.0,5.0,-999,-99.99,,,-99.99,,2013-02-21 11:52:00,
2013-02-21 07:01:00,44.0,-99.9,30.11,NNW,333,4.0,5.0,-999,-99.99,,,-99.99,,2013-02-21 12:01:00,
2013-02-21 07:11:00,44.0,-99.9,30.12,NNW,332,4.0,4.0,-999,-99.99,,,-99.99,,2013-02-21 12:11:00,
2013-02-21 07:22:00,44.0,-99.9,30.12,NNW,327,3.0,4.0,-999,-99.99,,,-99.99,,2013-02-21 12:22:00,
2013-02-21 07:32:00,44.0,-99.9,30.12,NNW,329,3.0,3.0,-999,-99.99,,,-99.99,,2013-02-21 12:32:00,
2013-02-21 07:43:00,46.0,-99.9,30.13,NW,321,2.0,4.0,-999,-99.99,,,-99.99,,2013-02-21 12:43:00,
2013-02-21 07:53:00,46.0,-99.9,30.13,NNW,335,2.0,3.0,-999,-99.99,,,-99.99,,2013-02-21 12:53:00,
2013-02-21 08:02:00,47.0,-99.9,30.14,NW,324,3.0,4.0,-999,-99.99,,,-99.99,,2013-02-21 13:02:00,
2013-02-21 08:12:00,46.0,-99.9,30.14,North,4,6.0,12.0,-999,-99.99,,,-99.99,,2013-02-21 13:12:00,
2013-02-21 08:22:00,46.0,-99.9,30.14,North,350,7.0,11.0,-999,-99.99,,,-99.99,,2013-02-21 13:22:00,
2013-02-21 08:32:00,46.0,-99.9,30.15,North,356,5.0,8.0,-999,-99.99,,,-99.99,,2013-02-21 13:32:00,
2013-02-21 08:42:00,46.0,-99.9,30.16,North,7,9.0,13.0,-999,-99.99,,,-99.99,,2013-02-21 13:42:00,
2013-02-21 08:52:00,47.0,-99.9,30.16,North,358,4.0,10.0,-999,-99.99,,,-99.99,,2013-02-21 13:52:00,
2013-02-21 09:02:00,47.0,-99.9,30.16,North,1,5.0,9.0,-999,-99.99,,,-99.99,,2013-02-21 14:02:00,
2013-02-21 09:11:00,47.0,-99.9,30.16,North,-999,5.0,8.0,-999,-99.99,,,-99.99,,2013-02-21 14:11:00,
2013-02-21 09:22:00,47.0,-99.9,30.16,North,2,5.0,8.0,-999,-99.99,,,-99.99,,2013-02-21 14:22:00,
2013-02-21 09:32:00,47.0,-99.9,30.16,North,2,4.0,8.0,-999,-99.99,,,-99.99,,2013-02-21 14:32:00,
2013-02-21 09:42:00,47.0,-99.9,30.16,North,5,5.0,7.0,-999,-99.99,,,-99.99,,2013-02-21 14:42:00,
2013-02-21 09:52:00,48.0,-99.9,30.16,North,5,5.0,8.0,-999,-99.99,,,-99.99,,2013-02-21 14:52:00,
2013-02-21 10:02:00,48.0,-99.9,30.17,North,4,5.0,8.0,-999,-99.99,,,-99.99,,2013-02-21 15:02:00,
2013-02-21 10:12:00,48.0,-99.9,30.17,North,5,5.0,8.0,-999,-99.99,,,-99.99,,2013-02-21 15:12:00,
2013-02-21 10:22:00,49.0,-99.9,30.17,North,359,4.0,7.0,-999,-99.99,,,-99.99,,2013-02-21 15:22:00,
2013-02-21 10:32:00,49.0,-99.9,30.17,North,5,4.0,6.0,-999,-99.99,,,-99.99,,2013-02-21 15:32:00,
2013-02-21 10:42:00,49.0,-99.9,30.17,North,7,5.0,6.0,-999,-99.99,,,-99.99,,2013-02-21 15:42:00,
2013-02-21 10:52:00,50.0,-99.9,30.17,North,6,5.0,6.0,-999,-99.99,,,-99.99,,2013-02-21 15:52:00,
2013-02-21 11:02:00,51.0,-99.9,30.17,North,9,4.0,6.0,-999,-99.99,,,-99.99,,2013-02-21 16:02:00,
2013-02-21 11:12:00,51.0,-99.9,30.16,NNE,12,3.0,5.0,-999,-99.99,,,-99.99,,2013-02-21 16:12:00,
2013-02-21 11:22:00,51.0,-99.9,30.17,NE,44,2.0,3.0,-999,-99.99,,,-99.99,,2013-02-21 16:22:00,
2013-02-21 11:32:00,53.0,-99.9,30.17,SE,142,1.0,2.0,-999,-99.99,,,-99.99,,2013-02-21 16:32:00,
2013-02-21 11:42:00,54.0,-99.9,30.17,South,177,1.0,2.0,-999,-99.99,,,-99.99,,2013-02-21 16:42:00,
2013-02-21 11:52:00,53.0,-99.9,30.17,SE,134,4.0,5.0,-999,-99.99,,,-99.99,,2013-02-21 16:52:00,
2013-02-21 12:02:00,53.0,-99.9,30.17,SSE,158,4.0,5.0,-999,-99.99,,,-99.99,,2013-02-21 17:02:00,
2013-02-21 12:12:00,54.0,-99.9,30.17,SSE,155,4.0,5.0,-999,-99.99,,,-99.99,,2013-02-21 17:12:00,
2013-02-21 12:22:00,54.0,-99.9,30.17,SSE,147,5.0,6.0,-999,-99.99,,,-99.99,,2013-02-21 17:22:00,
2013-02-21 12:32:00,53.0,-99.9,30.16,SE,137,7.0,10.0,-999,-99.99,,,-99.99,,2013-02-21 17:32:00,
2013-02-21 12:42:00,53.0,-99.9,30.16,ESE,114,9.0,11.0,-999,-99.99,,,-99.99,,2013-02-21 17:42:00,
2013-02-21 12:52:00,53.0,-99.9,30.16,ESE,113,10.0,11.0,-999,-99.99,,,-99.99,,2013-02-21 17:52:00,
2013-02-21 13:02:00,53.0,-99.9,30.16,ESE,113,13.0,14.0,-999,-99.99,,,-99.99,,2013-02-21 18:02:00,
2013-02-21 13:12:00,53.0,-99.9,30.15,ESE,103,13.0,15.0,-999,-99.99,,,-99.99,,2013-02-21 18:12:00,
2013-02-21 13:22:00,53.0,-99.9,30.14,ESE,105,13.0,15.0,-999,-99.99,,,-99.99,,2013-02-21 18:22:00,
2013-02-21 13:32:00,53.0,-99.9,30.14,ESE,104,13.0,15.0,-999,-99.99,,,-99.99,,2013-02-21 18:32:00,
2013-02-21 13:42:00,53.0,-99.9,30.13,ESE,107,13.0,15.0,-999,-99.99,,,-99.99,,2013-02-21 18:42:00,
2013-02-21 13:52:00,53.0,-99.9,30.13,ESE,111,13.0,15.0,-999,-99.99,,,-99.99,,2013-02-21 18:52:00,
2013-02-21 14:02:00,53.0,-99.9,30.13,ESE,111,13.0,14.0,-999,-99.99,,,-99.99,,2013-02-21 19:02:00,
2013-02-21 14:12:00,53.0,-99.9,30.12,ESE,111,13.0,14.0,-999,-99.99,,,-99.99,,2013-02-21 19:12:00,
2013-02-21 14:22:00,53.0,-99.9,30.12,ESE,105,12.0,15.0,-999,-99.99,,,-99.99,,2013-02-21 19:22:00,
2013-02-21 14:32:00,53.0,-99.9,30.11,ESE,104,12.0,15.0,-999,-99.99,,,-99.99,,2013-02-21 19:32:00,
2013-02-21 14:42:00,53.0,-99.9,30.11,ESE,102,12.0,14.0,-999,-99.99,,,-99.99,,2013-02-21 19:42:00,
2013-02-21 14:52:00,53.0,-99.9,30.11,ESE,102,12.0,14.0,-999,-99.99,,,-99.99,,2013-02-21 19:52:00,
2013-02-21 15:01:00,53.0,-99.9,30.11,ESE,107,13.0,15.0,-999,-99.99,,,-99.99,,2013-02-21 20:01:00,
2013-02-21 15:11:00,53.0,-99.9,30.10,ESE,103,12.0,14.0,-999,-99.99,,,-99.99,,2013-02-21 20:11:00,
2013-02-21 15:22:00,53.0,-99.9,30.10,East,101,12.0,14.0,-999,-99.99,,,-99.99,,2013-02-21 20:22:00,
2013-02-21 15:32:00,53.0,-99.9,30.09,ESE,106,11.0,13.0,-999,-99.99,,,-99.99,,2013-02-21 20:32:00,
2013-02-21 15:42:00,53.0,-99.9,30.09,ESE,117,11.0,12.0,-999,-99.99,,,-99.99,,2013-02-21 20:42:00,
2013-02-21 15:53:00,53.0,-99.9,30.10,ESE,112,10.0,12.0,-999,-99.99,,,-99.99,,2013-02-21 20:53:00,
2013-02-21 16:02:00,53.0,-99.9,30.10,ESE,111,10.0,11.0,-999,-99.99,,,-99.99,,2013-02-21 21:02:00,
2013-02-21 16:12:00,53.0,-99.9,30.09,ESE,105,9.0,11.0,-999,-99.99,,,-99.99,,2013-02-21 21:12:00,
2013-02-21 16:22:00,53.0,-99.9,30.09,ESE,115,9.0,11.0,-999,-99.99,,,-99.99,,2013-02-21 21:22:00,
2013-02-21 16:32:00,54.0,-99.9,30.09,East,101,10.0,12.0,-999,-99.99,,,-99.99,,2013-02-21 21:32:00,
2013-02-21 16:42:00,53.0,-99.9,30.09,ESE,106,10.0,12.0,-999,-99.99,,,-99.99,,2013-02-21 21:42:00,
2013-02-21 16:52:00,53.0,-99.9,30.09,ESE,108,10.0,11.0,-999,-99.99,,,-99.99,,2013-02-21 21:52:00,
2013-02-21 17:02:00,53.0,-99.9,30.09,ESE,102,10.0,12.0,-999,-99.99,,,-99.99,,2013-02-21 22:02:00,
2013-02-21 17:11:00,53.0,-99.9,30.09,East,99,9.0,11.0,-999,-99.99,,,-99.99,,2013-02-21 22:11:00,
2013-02-21 17:22:00,54.0,-99.9,30.09,ESE,102,9.0,10.0,-999,-99.99,,,-99.99,,2013-02-21 22:22:00,
2013-02-21 17:32:00,53.0,-99.9,30.09,ESE,105,9.0,10.0,-999,-99.99,,,-99.99,,2013-02-21 22:32:00,
2013-02-21 17:42:00,53.0,-99.9,30.10,ESE,111,8.0,10.0,-999,-99.99,,,-99.99,,2013-02-21 22:42:00,
2013-02-21 17:52:00,53.0,-99.9,30.09,ESE,102,8.0,9.0,-999,-99.99,,,-99.99,,2013-02-21 22:52:00,
2013-02-21 18:01:00,53.0,-99.9,30.10,East,97,8.0,9.0,-999,-99.99,,,-99.99,,2013-02-21 23:01:00,
2013-02-21 18:11:00,53.0,-99.9,30.10,East,91,7.0,8.0,-999,-99.99,,,-99.99,,2013-02-21 23:11:00,
2013-02-21 18:22:00,53.0,-99.9,30.10,East,90,7.0,9.0,-999,-99.99,,,-99.99,,2013-02-21 23:22:00,
2013-02-21 18:32:00,53.0,-99.9,30.10,East,82,8.0,9.0,-999,-99.99,,,-99.99,,2013-02-21 23:32:00,
2013-02-21 18:42:00,53.0,-99.9,30.11,East,86,7.0,9.0,-999,-99.99,,,-99.99,,2013-02-21 23:42:00,
2013-02-21 18:53:00,53.0,-99.9,30.11,ENE,77,7.0,9.0,-999,-99.99,,,-99.99,,2013-02-21 23:53:00,
2013-02-21 19:02:00,53.0,-99.9,30.10,ENE,78,6.0,8.0,-999,-99.99,,,-99.99,,2013-02-22 00:02:00,
2013-02-21 19:11:00,53.0,-99.9,30.10,East,82,6.0,8.0,-999,-99.99,,,-99.99,,2013-02-22 00:11:00,
2013-02-21 19:22:00,53.0,-99.9,30.10,ENE,72,8.0,8.0,-999,-99.99,,,-99.99,,2013-02-22 00:22:00,
2013-02-21 19:32:00,53.0,-99.9,30.11,ENE,61,6.0,8.0,-999,-99.99,,,-99.99,,2013-02-22 00:32:00,
2013-02-21 19:42:00,53.0,-99.9,30.11,ENE,71,5.0,6.0,-999,-99.99,,,-99.99,,2013-02-22 00:42:00,
2013-02-21 19:52:00,53.0,-99.9,30.10,ENE,66,5.0,6.0,-999,-99.99,,,-99.99,,2013-02-22 00:52:00,
2013-02-21 20:01:00,53.0,-99.9,30.10,East,81,5.0,7.0,-999,-99.99,,,-99.99,,2013-02-22 01:01:00,
2013-02-21 20:11:00,53.0,-99.9,30.11,East,89,5.0,7.0,-999,-99.99,,,-99.99,,2013-02-22 01:11:00,
2013-02-21 20:22:00,53.0,-99.9,30.11,East,99,5.0,6.0,-999,-99.99,,,-99.99,,2013-02-22 01:22:00,
2013-02-21 20:32:00,53.0,-99.9,30.11,East,90,5.0,6.0,-999,-99.99,,,-99.99,,2013-02-22 01:32:00,
2013-02-21 20:42:00,53.0,-99.9,30.12,East,84,4.0,5.0,-999,-99.99,,,-99.99,,2013-02-22 01:42:00,
2013-02-21 20:52:00,53.0,-99.9,30.11,ENE,66,6.0,6.0,-999,-99.99,,,-99.99,,2013-02-22 01:52:00,
2013-02-21 21:02:00,53.0,-99.9,30.11,ENE,59,4.0,6.0,-999,-99.99,,,-99.99,,2013-02-22 02:02:00,
2013-02-21 21:11:00,52.0,-99.9,30.12,NE,40,4.0,5.0,-999,-99.99,,,-99.99,,2013-02-22 02:11:00,
2013-02-21 21:22:00,53.0,-99.9,30.12,ENE,57,6.0,6.0,-999,-99.99,,,-99.99,,2013-02-22 02:22:00,
2013-02-21 21:32:00,52.0,-99.9,30.12,NE,49,7.0,9.0,-999,-99.99,,,-99.99,,2013-02-22 02:32:00,
2013-02-21 21:42:00,52.0,-99.9,30.12,ENE,63,9.0,11.0,-999,-99.99,,,-99.99,,2013-02-22 02:42:00,
2013-02-21 21:52:00,52.0,-99.9,30.13,ENE,62,9.0,10.0,-999,-99.99,,,-99.99,,2013-02-22 02:52:00,
2013-02-21 22:02:00,53.0,-99.9,30.13,ENE,57,8.0,10.0,-999,-99.99,,,-99.99,,2013-02-22 03:02:00,
2013-02-21 22:11:00,53.0,-99.9,30.13,ENE,60,8.0,9.0,-999,-99.99,,,-99.99,,2013-02-22 03:11:00,
2013-02-21 22:22:00,53.0,-99.9,30.12,ENE,58,10.0,11.0,-999,-99.99,,,-99.99,,2013-02-22 03:22:00,
2013-02-21 22:32:00,53.0,-99.9,30.13,ENE,58,10.0,12.0,-999,-99.99,,,-99.99,,2013-02-22 03:32:00,
2013-02-21 22:42:00,53.0,-99.9,30.13,ENE,58,8.0,11.0,-999,-99.99,,,-99.99,,2013-02-22 03:42:00,
2013-02-21 22:52:00,53.0,-99.9,30.13,NE,52,9.0,10.0,-999,-99.99,,,-99.99,,2013-02-22 03:52:00,
2013-02-21 23:02:00,53.0,-99.9,30.14,NE,49,9.0,11.0,-999,-99.99,,,-99.99,,2013-02-22 04:02:00,
2013-02-21 23:11:00,53.0,-99.9,30.15,NE,39,8.0,10.0,-999,-99.99,,,-99.99,,2013-02-22 04:11:00,
2013-02-21 23:22:00,53.0,-99.9,30.14,NE,51,9.0,10.0,-999,-99.99,,,-99.99,,2013-02-22 04:22:00,
2013-02-21 23:32:00,53.0,-99.9,30.14,NE,43,9.0,11.0,-999,-99.99,,,-99.99,,2013-02-22 04:32:00,
2013-02-21 23:42:00,53.0,-99.9,30.13,NE,44,11.0,14.0,-999,-99.99,,,-99.99,,2013-02-22 04:42:00,
2013-02-21 23:52:00,53.0,-99.9,30.14,NE,48,11.0,13.0,-999,-99.99,,,-99.99,,2013-02-22 04:52:00,